OMDB

Dubai International Airport

Airport
ICAO code
OMDB
IATA Code
DXB
Summary
ICAO Region
MID
ICAO Territory
Location

Al Garhoud, Dubai

Serving
Dubai
Elevation
62 ft
Coordinates
25° 15' 10" N , 55° 21' 52" E
KCC
Airport BS
Bird Strike
Airport LOS
Parallel Runway Operation
Metar
OMDB 181600Z 33006KT 310V010 7000 NSC 36/29 Q0994 NOSIG

International airport serving the emirate of Dubai, UAE.

Climatology

Hot Desert Climate (Köppen climate classification BWh) - Hot desert climates are typically found in the subtropics where there is unbroken sunshine for the whole year due to the stable descending air and high pressure, little or no precipitation. Maximum temperatures of 40°C to 45°C are not uncommon, particularly during the warmer months of the year.

Runways

Designator Length Width Surface Rops
12L/30R 4000 60 ASP Yes/Yes
12R/30L 4000 46 ASP Yes/Yes

SKYbrary Partners:

Safety knowledge contributed by: